This is the latest recevied weather packets stored in our database for station/object JI1UWB-13. If no packets are shown the sender has not sent any weather packets the latest 10 day(s).
| Time | Temp. | Humidity | Pressure | Rain* | Wind** | Luminosity | Snow |
|---|---|---|---|---|---|---|---|
| 1777670717 | 18.89° C | 50% | 1001.9 hPa | 0 mm | - | - | - |
| 1777668316 | 15.56° C | 62% | 1001.3 hPa | 0 mm | - | - | - |
| 1777662916 | 13.33° C | 83% | 999.1 hPa | 0 mm | - | - | - |
| 1777659319 | 13.89° C | 79% | 997.4 hPa | 0 mm | - | - | - |
| 1777656918 | 14.44° C | 77% | 996.6 hPa | 0 mm | - | - | - |
| 1777649116 | 13.89° C | 93% | 996.4 hPa | 0 mm | - | - | - |
| 1777648518 | 13.89° C | 93% | 996.4 hPa | 0 mm | - | - | - |
| 1777644317 | 14.44° C | 90% | 995.6 hPa | 0 mm | - | - | - |
| 1777640717 | 15° C | 92% | 996.1 hPa | 0 mm | - | - | - |
| 1777638918 | 15.56° C | 94% | 995.6 hPa | 0 mm | - | - | - |
| 1777638317 | 15.56° C | 96% | 995.4 hPa | 0 mm | - | - | - |
| 1777631116 | 18.89° C | 60% | 991.7 hPa | 0 mm | - | - | - |
| 1777623317 | 22.22° C | 75% | 993.3 hPa | 0 mm | - | - | - |
| 1777622139 | 22.78° C | 76% | 993.7 hPa | 0 mm | - | - | - |
| 1777621517 | 22.78° C | 78% | 994 hPa | 0 mm | - | - | - |
| 1777618518 | 22.22° C | 86% | 995.2 hPa | 0 mm | - | - | - |
| 1777616718 | 20° C | 100% | 996 hPa | 0 mm | - | - | - |
| 1777614317 | 16.11° C | 100% | 997 hPa | 0 mm | - | - | - |
| 1777608916 | 15° C | 100% | 999.7 hPa | 0.51 mm | - | - | - |
| 1777607718 | 14.44° C | 100% | 1000.3 hPa | 0.76 mm | - | - | - |
| 1777602337 | 12.78° C | 100% | 1003.2 hPa | 1.02 mm | - | - | - |
| 1777601118 | 12.22° C | 100% | 1003.3 hPa | 1.02 mm | - | - | - |
| 1777598717 | 12.22° C | 100% | 1005.4 hPa | 0.76 mm | - | - | - |
| 1777596957 | 11.67° C | 100% | 1006.4 hPa | 2.79 mm | - | - | - |
| 1777595117 | 11.11° C | 100% | 1006.7 hPa | 5.33 mm | - | - | - |
* Rain latest hour (hover to see other rain measurements)
** Current wind speed in m/s (hover to see current wind gust speed)